Regional Weather Roundup
Issued by NWS Jackson, KY

Home | Current Version | Previous Version | Graphics & Text | Print | Product List | Glossary On
Versions: 1 2 3 4 5 6 7 8 9 10 11 12 13 14 15 16 17 18 19 20 21 22 23 24 25 26 27
000
ASUS43 KJKL 190510
RWRJKL

EAST KENTUCKY HOURLY WEATHER ROUNDUP
NATIONAL WEATHER SERVICE JACKSON KY
1200 AM EST MON FEB 19 2018

NOTE: "FAIR" INDICATES FEW OR NO CLOUDS BELOW 12,000 FEET WITH
NO SIGNIFICANT WEATHER AND/OR OBSTRUCTIONS TO VISIBILITY.

* THESE REPORTS ARE NOT UNDER NWS QUALITY CONTROL AND MAY NOT
  REPORT WEATHER SUCH AS PRECIPITATION AND FOG.

KYZ079-080-083-085-087-088-110-112-115-119-120-190600
...EASTERN KENTUCKY...

CITY           SKY/WX    TMP DP  RH WIND       PRES   REMARKS
JACKSON        CLOUDY    50  32  50 VRB5      30.15S
LONDON         CLOUDY    51  37  58 SE5       30.14F
SOMERSET*      CLOUDY    52  39  62 S3        30.16R
WILLIAMSBURG*  CLOUDY    54  41  62 SE8       30.16F
MIDDLESBORO*   LGT RAIN  48  44  85 CALM      30.23R
HARLAN APT*    CLOUDY    54  36  50 CALM      30.21S
PIKE CO APT*     N/A     51  34  52 SE7       30.16F
BIG SANDY APT*   N/A     50  35  55 SE8       30.17S
MOREHEAD APT*  CLOUDY    45  30  57 SE6       30.16S
ASHLAND*         N/A     36  34  92 CALM      30.17F
$$

KYZ035-036-041-042-044-050-067-078-099-190600
...CENTRAL KENTUCKY...

CITY           SKY/WX    TMP DP  RH WIND       PRES   REMARKS
MT STERLING*   CLOUDY    45  32  61 CALM      30.16S
FLEMING/MASON* CLOUDY    40  33  74 SE6       30.15S
DANVILLE*      CLOUDY    46  37  71 CALM      30.15R
LEXINGTON      CLOUDY    49  34  56 SE12      30.12F
FRANKFORT      CLOUDY    47  33  58 SE6       30.10F
LOUISVILLE     CLOUDY    48  35  60 SE7       30.08F
LEBANON*       CLOUDY    52  36  54 S12       30.11F
GLASGOW*       CLOUDY    54  36  50 CALM      30.13R
BOWLING GREEN  CLOUDY    57  46  66 S12       30.10F
$$

KYZ091>093-OHZ055-061-077-WVZ005-015-034-035-042-190600
...SOUTHERN OHIO/WEST VIRGINIA...

CITY           SKY/WX    TMP DP  RH WIND       PRES   REMARKS
COVINGTON      CLOUDY    43  34  70 SE10      30.10F
COLUMBUS       MOCLDY    38  29  70 SE13      30.13F WCI  30
DAYTON         CLOUDY    38  32  79 SE15      30.09F WCI  29
WILMINGTON       N/A     37  32  82 SE8       30.11F WCI  31
HUNTINGTON       N/A     37  32  82 E3        30.16S
CHARLESTON       N/A     37  33  85 CALM      30.17F
BECKLEY          N/A     44  27  51 SE16G25   30.25F
BLUEFIELD        N/A     45  26  47 SE16G24   30.29S
LOGAN CO APT*    N/A     52  30  43 VRB6G21   30.19S
$$

VAZ002-007-008-TNZ017-027-036-066-071-190600
...SOUTHWEST VIRGINIA/EAST TENNESSEE...

CITY           SKY/WX    TMP DP  RH WIND       PRES   REMARKS
WISE*          CLOUDY    52  37  58 S13G22    30.23S
JONESVILLE*    CLOUDY    46  41  81 CALM      30.25S
ABINGDON*      CLOUDY    53  37  55 E8        30.28R
BRISTOL        CLOUDY    56  40  55 SE6       30.25S
MORRISTOWN*    CLOUDY    50  41  71 N3        30.22S
SEVIERVILLE*   CLOUDY    48  45  87 CALM      30.22R
KNOXVILLE      CLOUDY    53  45  74 N3        30.21S
OAK RIDGE      CLOUDY    52  46  80 CALM      30.23R
CROSSVILLE     MOCLDY    54  50  86 S8G18     30.19S
NASHVILLE      CLOUDY    59  49  69 S10       30.15R
$$

...KEY TO REMARKS...
VSB - VISIBILITY IN MILES
WCI - WIND CHILL INDEX
HX  - HEAT INDEX

$$




USA.gov is the U.S. government's official web portal to all federal, state and local government web resources and services.